Regional Weather Roundup
Issued by NWS

Home | Current Version | Previous Version | Graphics & Text | Print | Product List | Glossary On
Versions: 1 2 3 4 5 6 7 8 9 10 11 12 13 14 15 16 17 18 19 20 21 22 23 24 25 26 27 28 29 30 31 32 33 34 35 36 37 38 39 40 41 42 43 44 45 46 47 48 49 50
000
ASUS43 KOAX 271510
RWRNE

WEATHER ROUNDUP FOR NEBRASKA
NATIONAL WEATHER SERVICE OMAHA NE
900 AM CST TUE JAN 27 2015

NOTES: SATELLITE DATA IS BEING USED TO AUGMENT CLOUD COVER ABOVE
       12000 FEET.
       "FAIR" INDICATES FEW OR NO CLOUDS BELOW 12,000 FEET WITH NO
       SIGNIFICANT WEATHER AND/OR OBSTRUCTIONS TO VISIBILITY.

  * THESE STATIONS DO NOT REPORT WEATHER SUCH AS RAIN...SNOW OR FOG.

NEZ001>004-019>022-054>056-271600-
NEBRASKA PANHANDLE

CITY           SKY/WX    TMP DP  RH WIND       PRES   REMARKS
SCOTTSBLUFF      N/A    N/A N/A N/A MISG      30.08S
ALLIANCE       CLEAR     35  29  78 SW9       30.06R HAZE    WCI  28
CHADRON        PTCLDY    36  28  73 SW8       30.04R WCI  30
KIMBALL        PTCLDY    35  26  71 W6        30.11R WCI  30
SIDNEY         CLEAR     35  27  72 SW9       30.11R WCI  28
$$

NEZ057>060-069>072-079>082-271600-
SOUTHWEST NEBRASKA

CITY           SKY/WX    TMP DP  RH WIND       PRES   REMARKS
NORTH PLATTE   CLEAR     30  27  88 NW5       30.04S WCI  25
IMPERIAL       PTCLDY    40  28  62 W13       30.07S WCI  32
LEXINGTON      MOSUNNY   34  31  90 W5        30.04S WCI  30
MCCOOK         CLEAR     37  30  75 W12       30.07S WCI  29
OGALLALA       CLEAR     34  31  88 W7        30.07R WCI  28
$$

NEZ005>010-023>029-035>040-094-271600-
NORTH CENTRAL NEBRASKA

CITY           SKY/WX    TMP DP  RH WIND       PRES   REMARKS
VALENTINE      CLEAR     34  30  85 SW8       29.98S WCI  27
AINSWORTH      CLEAR     39  31  73 W8        29.98R WCI  33
BROKEN BOW     PTCLDY    34  29  82 CALM      30.01R
O`NEILL        CLEAR     36  31  83 SE9       30.02S WCI  29
ORD            MOSUNNY   29  25  85 CALM      30.02S
THEDFORD       CLEAR     36  32  84 CALM      30.01S
$$

NEZ041-046>049-061>064-073>077-083>087-271600-
SOUTH CENTRAL NEBRASKA

CITY           SKY/WX    TMP DP  RH WIND       PRES   REMARKS
GRAND ISLAND   SUNNY     40  32  73 S12       30.06S WCI  33
AURORA         MOSUNNY   37  32  82 SE10      30.06F WCI  30
HASTINGS       MOSUNNY   36  29  75 S7        30.05F WCI  30
HEBRON         SUNNY     29  25  84 CALM      30.10F
HOLDREGE       MOSUNNY   39  30  70 CALM      30.04S
KEARNEY *      MOSUNNY   30  27  86 S5        30.05R WCI  25
YORK           MOSUNNY   36  32  87 SE8       30.09R WCI  29
$$

NEZ011>018-030>034-042>045-271600-
NORTHEAST NEBRASKA

CITY           SKY/WX    TMP DP  RH WIND       PRES   REMARKS
NORFOLK        SUNNY     34  31  88 SE7       30.08R WCI  28
ALBION         SUNNY     33  28  83 SE9       30.07R WCI  25
BLAIR          SUNNY     35  33  92 E3        30.11S
COLUMBUS *     SUNNY     30  25  80 CALM      30.11S
FREMONT        SUNNY     32  31  94 CALM      30.12S
TEKAMAH        SUNNY     31  29  92 CALM      30.14R
WAYNE          SUNNY     28  26  94 CALM      30.10S
$$

NEZ050>053-065>068-078-088>093-271600-
SOUTHEAST NEBRASKA

CITY           SKY/WX    TMP DP  RH WIND       PRES   REMARKS
LINCOLN        SUNNY     31  26  82 CALM      30.14R
OMAHA EPPLEY   MOSUNNY   32  30  92 E3        30.14R
BEATRICE       MOSUNNY   29  25  84 CALM      30.12S
FALLS CITY     SUNNY     31  27  85 CALM      30.15R
NEBRASKA CITY  SUNNY     34  33  96 CALM      30.14R
PLATTSMOUTH    SUNNY     33  31  92 CALM      30.13R
$$

NEZ044-045-051>053-067-271600-
OMAHA AREA

CITY           SKY/WX    TMP DP  RH WIND       PRES   REMARKS
OMAHA EPPLEY   MOSUNNY   32  30  92 E3        30.14R
BLAIR          SUNNY     35  33  92 E3        30.11S
FREMONT        SUNNY     32  31  94 CALM      30.12S
MILLARD        SUNNY     32  29  92 CALM      30.13S
OFFUTT AFB     SUNNY     31  29  94 CALM      30.13R
PLATTSMOUTH    SUNNY     33  31  92 CALM      30.13R
WAHOO          FAIR      31  28  89 CALM      30.12S
$$


USA.gov is the U.S. government's official web portal to all federal, state and local government web resources and services.